Weather History for Rexburg, ID

Change the Weather History Date:

Thursday, March 7, 2013

  Actual Average Record
Temperature  
Mean Temperature 31 °F 30 °F  
Max Temperature 37 °F 41 °F 53 °F (2007)
Min Temperature 24 °F 20 °F 1 °F (2008)
Degree Days  
Heating Degree Days 34 35  
Month to date heating degree days 253 254  
Since 1 July heating degree days 5920 6227  
Cooling Degree Days 0 0  
Month to date cooling degree days 0 0  
Year to date cooling degree days 0 0  
Moisture  
Dew Point 22 °F    
Average Humidity 65    
Maximum Humidity 78    
Minimum Humidity 52    
Precipitation  
Precipitation 0.00 in 0.02 in 0.27 in (1989)
Month to date precipitation 0.13 0.19  
Year to date precipitation 1.71 1.76  
Sea Level Pressure  
Sea Level Pressure 30.03 in    
Wind  
Wind Speed 5 mph (East)    
Max Wind Speed 17 mph    
Max Gust Speed 28 mph    
Visibility 10 miles    
Events      
T = Trace of Precipitation, MM = Missing Value Source: NWS Daily Summary

Daily Weather History Graph

Daily Weather History Graph

Search for Another Location

Airport:

Trip Planner

Search our weather history database for the weather conditions in past years. The results will help you decide how hot, cold, wet, or windy it might be!

Date:

Astronomy

Mar. 07, 2013 Rise Set
Actual Time 6:53 AM MST 6:23 PM MST
Civil Twilight 6:24 AM MST 6:52 PM MST
Nautical Twilight 5:51 AM MST 7:25 PM MST
Astronomical Twilight 5:17 AM MST 7:59 PM MST
Moon 4:02 AM MST (3/7) 2:09 PM MST (3/7)
Length of Visible Light 12h 28m
Length of Day
11h 30m
Waning Crescent, 19% of the Moon is Illuminated
Mar 7
Waning Crescent
Mar 11
New
Mar 19
First Quarter
Mar 27
Full
Apr 2
Last Quarter

Hourly Weather History & Observations

Time (MST) Temp. Windchill Dew Point Humidity Pressure Visibility Wind Dir Wind Speed Gust Speed Precip Events Conditions
12:53 AM 33.1 °F 23.4 °F 23.0 °F 66% 29.96 in 10.0 mi South 13.8 mph 24.2 mph N/A   Clear
1:53 AM 32.0 °F 23.6 °F 21.9 °F 66% 29.97 in 10.0 mi South 10.4 mph 19.6 mph N/A   Clear
2:53 AM 30.9 °F 21.2 °F 21.0 °F 67% 29.97 in 10.0 mi SSW 12.7 mph - N/A   Clear
3:53 AM 30.0 °F 22.4 °F 19.9 °F 66% 29.94 in 10.0 mi SSW 8.1 mph - N/A   Clear
4:53 AM 28.9 °F 21.9 °F 19.0 °F 67% 30.04 in 10.0 mi SSW 6.9 mph - N/A   Clear
5:53 AM 28.0 °F 22.8 °F 19.0 °F 69% 30.05 in 10.0 mi SSW 4.6 mph - N/A   Clear
6:53 AM 28.0 °F 24.2 °F 18.0 °F 66% 30.06 in 10.0 mi Variable 3.5 mph - N/A   Clear
7:53 AM 26.1 °F - 19.0 °F 75% 30.09 in 10.0 mi Calm Calm - N/A   Clear
8:53 AM 28.9 °F - 19.9 °F 69% 30.10 in 10.0 mi Calm Calm - N/A   Clear
9:53 AM 30.9 °F - 21.9 °F 69% 30.10 in 10.0 mi Calm Calm - N/A   Partly Cloudy
10:53 AM 34.0 °F 31.0 °F 23.0 °F 64% 30.09 in 10.0 mi NE 3.5 mph - N/A   Clear
11:53 AM 36.0 °F 32.1 °F 21.9 °F 57% 30.08 in 10.0 mi ENE 4.6 mph - N/A   Clear
12:53 PM 36.0 °F 31.1 °F 23.0 °F 59% 30.07 in 10.0 mi ENE 5.8 mph - N/A   Clear
1:53 PM 36.0 °F 30.3 °F 21.9 °F 57% 30.04 in 10.0 mi ENE 6.9 mph - N/A   Clear
2:53 PM 36.0 °F 31.1 °F 21.0 °F 55% 30.03 in 10.0 mi ENE 5.8 mph - N/A   Scattered Clouds
3:53 PM 36.0 °F 30.3 °F 19.9 °F 52% 30.04 in 10.0 mi ENE 6.9 mph - N/A   Mostly Cloudy
4:53 PM 35.1 °F 30.1 °F 19.9 °F 54% 30.03 in 10.0 mi East 5.8 mph - N/A   Overcast
5:53 PM 34.0 °F 31.0 °F 21.0 °F 59% 30.04 in 10.0 mi East 3.5 mph - N/A   Overcast
6:53 PM 34.0 °F 31.0 °F 21.9 °F 61% 30.04 in 10.0 mi ENE 3.5 mph - N/A   Overcast
7:53 PM 34.0 °F 31.0 °F 21.9 °F 61% 30.04 in 10.0 mi East 3.5 mph - N/A   Overcast
8:53 PM 32.0 °F 27.5 °F 25.0 °F 75% 30.04 in 10.0 mi NNE 4.6 mph - N/A   Overcast
9:53 PM 30.9 °F 25.2 °F 24.1 °F 76% 30.03 in 10.0 mi NNE 5.8 mph - N/A   Overcast
10:53 PM 30.9 °F 26.2 °F 25.0 °F 79% 30.00 in 10.0 mi ENE 4.6 mph - N/A   Overcast
11:53 PM 30.9 °F 26.2 °F 26.1 °F 82% 29.98 in 10.0 mi NNE 4.6 mph - N/A   Overcast